Tracking 19176 objects as of 27-May-2018
HD Live streaming from Space Station
objects crossing your sky now

COSMOS 2179 (GLONASS)

Track COSMOS 2179 (GLONASS) now!
COSMOS 2179 (GLONASS) is classified as:


NORAD ID: 21855
Int'l Code: 1992-005C
Perigee: 19,112.1 km
Apogee: 19,161.8 km
Inclination: 64.0 °
Period: 675.7 minutes
Semi major axis: 25507 km
RCS: 3.1028 m2 (large)
Launch date: January 29, 1992
Source: Commonwealth of Independent States (former USSR) (CIS)
Launch site: TYURATAM MISSILE AND SPACE COMPLEX (TTMTR)
SV:
aabbcc
Your satellite tracking list
Your tracking list is empty




NASA's NSSDC Master Catalog

Two Line Element Set (TLE):
1 21855U 92005C   18147.26109427 +.00000092 +00000-0 +00000-0 0  9990
2 21855 064.0431 171.4097 0009747 231.9642 218.7550 02.13102831204638
Source of the keplerian elements: AFSPC